| time (UTC) | temp F | wind direction | speed MPH | gust MPH | rain 1hr in | rain 24hr in | rain mn in | humidity % | barometer mb |
| 20260509111522 | 53 | 60 | 1.0 | 6.0 | 0.00 | 0.00 | 0.00 | 68 | 998.3 |
| 20260509110025 | 53 | 171 | 1.0 | 6.0 | 0.00 | 0.00 | 0.00 | 67 | 998.3 |
| 20260509104533 | 54 | 241 | 0.0 | 7.0 | 0.00 | 0.00 | 0.00 | 67 | 998.6 |
| 20260509103027 | 55 | 250 | 2.0 | 22.0 | 0.00 | 0.00 | 0.00 | 65 | 998.2 |
| 20260509101527 | 53 | 225 | 2.0 | 14.0 | 0.00 | 0.00 | 0.00 | 64 | 998.4 |
| 20260509100039 | 52 | 251 | 0.0 | 3.0 | 0.00 | 0.00 | 0.00 | 64 | 998.7 |
| 20260509094525 | 52 | 138 | 0.0 | 3.0 | 0.00 | 0.00 | 0.00 | 62 | 999.0 |
| 20260509093024 | 53 | 87 | 0.0 | 3.0 | 0.00 | 0.00 | 0.00 | 59 | 999.2 |
| 20260509091525 | 53 | 355 | 1.0 | 6.0 | 0.00 | 0.00 | 0.00 | 58 | 999.4 |
| 20260509090028 | 52 | 208 | 0.0 | 3.0 | 0.00 | 0.00 | 0.00 | 56 | 999.7 |
| 20260509084530 | 51 | 157 | 1.0 | 10.0 | 0.00 | 0.00 | 0.00 | 52 | 1000.0 |
| 20260509083026 | 51 | 128 | 1.0 | 7.0 | 0.00 | 0.00 | 0.00 | 48 | 1000.3 |
| 20260509081539 | 51 | 302 | 0.0 | 2.0 | 0.00 | 0.00 | 0.00 | 45 | 1000.4 |
| 20260509080025 | 52 | 122 | 1.0 | 4.0 | 0.00 | 0.00 | 0.00 | 40 | 1000.4 |
| 20260509074524 | 53 | 240 | 1.0 | 5.0 | 0.00 | 0.00 | 0.00 | 40 | 1000.7 |
| 20260509073026 | 53 | 188 | 0.0 | 5.0 | 0.00 | 0.00 | 0.00 | 38 | 1000.9 |
| 20260509071525 | 54 | 256 | 0.0 | 7.0 | 0.00 | 0.00 | 0.00 | 39 | 1001.3 |
| 20260509070029 | 54 | 219 | 3.0 | 7.0 | 0.00 | 0.00 | 0.00 | 38 | 1001.4 |
| 20260509064526 | 54 | 221 | 2.0 | 8.0 | 0.00 | 0.00 | 0.00 | 41 | 1001.8 |
| 20260509063029 | 54 | 212 | 2.0 | 7.0 | 0.00 | 0.00 | 0.00 | 40 | 1002.2 |
| 20260509061525 | 53 | 195 | 0.0 | 6.0 | 0.00 | 0.00 | 0.00 | 44 | 1002.1 |
| 20260509060025 | 52 | 160 | 0.0 | 5.0 | 0.00 | 0.00 | 0.00 | 45 | 1002.3 |
| 20260509054528 | 52 | 114 | 0.0 | 4.0 | 0.00 | 0.00 | 0.00 | 47 | 1002.4 |
| 20260509053029 | 53 | 160 | 0.0 | 5.0 | 0.00 | 0.00 | 0.00 | 43 | 1002.6 |
| 20260509051532 | 54 | 131 | 0.0 | 3.0 | 0.00 | 0.00 | 0.00 | 46 | 1003.0 |
| 20260509050033 | 54 | 211 | 0.0 | 7.0 | 0.00 | 0.00 | 0.00 | 44 | 1003.1 |
| 20260509044541 | 53 | 223 | 3.0 | 8.0 | 0.00 | 0.00 | 0.00 | 43 | 1003.5 |
| 20260509043028 | 52 | 118 | 0.0 | 4.0 | 0.00 | 0.00 | 0.00 | 47 | 1003.6 |
| 20260509041528 | 51 | 176 | 0.0 | 2.0 | 0.00 | 0.00 | 0.00 | 54 | 1003.8 |
| 20260509040024 | 49 | 112 | 0.0 | 3.0 | 0.00 | 0.00 | 0.00 | 57 | 1004.1 |
| 20260509034503 | 49 | 239 | 0.0 | 0.0 | 0.00 | 0.00 | 0.00 | 64 | 1004.0 |
| 20260509033007 | 50 | 113 | 0.0 | 1.0 | 0.00 | 0.00 | 0.00 | 58 | 1004.0 |
| 20260509031516 | 50 | 107 | 0.0 | 0.0 | 0.00 | 0.00 | 0.00 | 56 | 1004.3 |
| 20260509030025 | 51 | 107 | 0.0 | 1.0 | 0.00 | 0.00 | 0.00 | 53 | 1004.5 |
| 20260509024526 | 52 | 112 | 0.0 | 0.0 | 0.00 | 0.00 | 0.00 | 50 | 1004.5 |
| 20260509023014 | 53 | 130 | 0.0 | 0.0 | 0.00 | 0.00 | 0.00 | 48 | 1004.7 |
| 20260509021515 | 54 | 169 | 0.0 | 2.0 | 0.00 | 0.00 | 0.00 | 46 | 1004.6 |
| 20260509020018 | 54 | 158 | 0.0 | 3.0 | 0.00 | 0.00 | 0.00 | 45 | 1004.7 |
| 20260509014526 | 55 | 121 | 0.0 | 0.0 | 0.00 | 0.00 | 0.00 | 45 | 1004.6 |
| 20260509013035 | 55 | 121 | 0.0 | 0.0 | 0.00 | 0.00 | 0.00 | 43 | 1004.6 |
| 20260509011508 | 56 | 212 | 0.0 | 3.0 | 0.00 | 0.00 | 0.00 | 43 | 1004.5 |
| 20260509010011 | 56 | 252 | 0.0 | 1.0 | 0.00 | 0.00 | 0.00 | 44 | 1004.6 |
| 20260509004527 | 57 | 136 | 0.0 | 0.0 | 0.00 | 0.00 | 0.00 | 42 | 1004.4 |
| 20260509003032 | 58 | 262 | 1.0 | 3.0 | 0.00 | 0.00 | 0.00 | 37 | 1004.5 |
| 20260509001528 | 59 | 221 | 0.0 | 8.0 | 0.00 | 0.00 | 0.00 | 36 | 1004.5 |
| 20260509000007 | 59 | 234 | 3.0 | 4.0 | 0.00 | 0.00 | 0.00 | 35 | 1004.6 |
| 20260508234518 | 59 | 222 | 4.0 | 9.0 | 0.00 | 0.00 | 0.00 | 35 | 1004.8 |
| 20260508233026 | 59 | 224 | 1.0 | 8.0 | 0.00 | 0.00 | 0.00 | 35 | 1004.8 |
| 20260508231526 | 60 | 236 | 4.0 | 11.0 | 0.00 | 0.00 | 0.00 | 34 | 1004.8 |
| 20260508230045 | 61 | 269 | 4.0 | 10.0 | 0.00 | 0.00 | 0.00 | 33 | 1004.9 |
| 20260508224529 | 61 | 244 | 5.0 | 13.0 | 0.00 | 0.00 | 0.00 | 33 | 1004.9 |
| 20260508223032 | 61 | 277 | 5.0 | 12.0 | 0.00 | 0.00 | 0.00 | 31 | 1005.0 |
| 20260508221526 | 61 | 273 | 5.0 | 9.0 | 0.00 | 0.00 | 0.00 | 33 | 1005.0 |
| 20260508220031 | 60 | 321 | 5.0 | 10.0 | 0.00 | 0.00 | 0.00 | 31 | 1005.2 |
| 20260508214526 | 60 | 277 | 7.0 | 11.0 | 0.00 | 0.00 | 0.00 | 30 | 1005.3 |
| 20260508213026 | 60 | 281 | 7.0 | 14.0 | 0.00 | 0.00 | 0.00 | 30 | 1005.2 |
| 20260508211526 | 60 | 283 | 5.0 | 13.0 | 0.00 | 0.00 | 0.00 | 31 | 1005.3 |
| 20260508210030 | 60 | 273 | 6.0 | 16.0 | 0.00 | 0.00 | 0.00 | 31 | 1005.5 |
| 20260508204526 | 60 | 304 | 7.0 | 14.0 | 0.00 | 0.00 | 0.00 | 30 | 1005.6 |
| 20260508203026 | 60 | 251 | 8.0 | 15.0 | 0.00 | 0.00 | 0.00 | 32 | 1005.8 |
| 20260508201529 | 59 | 302 | 7.0 | 13.0 | 0.00 | 0.00 | 0.00 | 30 | 1006.0 |
| 20260508200026 | 59 | 259 | 8.0 | 14.0 | 0.00 | 0.00 | 0.00 | 32 | 1006.2 |
| 20260508194527 | 59 | 297 | 3.0 | 15.0 | 0.00 | 0.00 | 0.00 | 31 | 1006.5 |
| 20260508193055 | 59 | 310 | 8.0 | 14.0 | 0.00 | 0.00 | 0.00 | 31 | 1006.8 |
| 20260508191530 | 58 | 321 | 8.0 | 13.0 | 0.00 | 0.00 | 0.00 | 32 | 1006.9 |
| 20260508190035 | 58 | 309 | 5.0 | 17.0 | 0.00 | 0.00 | 0.00 | 32 | 1007.1 |
| 20260508184503 | 58 | 280 | 9.0 | 18.0 | 0.00 | 0.00 | 0.00 | 32 | 1007.1 |
| 20260508183004 | 58 | 289 | 9.0 | 15.0 | 0.00 | 0.00 | 0.00 | 32 | 1007.3 |
| 20260508181519 | 57 | 308 | 6.0 | 16.0 | 0.00 | 0.00 | 0.00 | 32 | 1007.3 |
| 20260508180028 | 57 | 319 | 7.0 | 16.0 | 0.00 | 0.00 | 0.00 | 33 | 1007.5 |
| 20260508174530 | 57 | 319 | 9.0 | 19.0 | 0.00 | 0.00 | 0.00 | 33 | 1007.8 |
| 20260508173004 | 57 | 274 | 9.0 | 16.0 | 0.00 | 0.00 | 0.00 | 33 | 1007.8 |
| 20260508171507 | 57 | 229 | 7.0 | 15.0 | 0.00 | 0.00 | 0.00 | 34 | 1008.0 |
| 20260508170010 | 56 | 257 | 7.0 | 12.0 | 0.00 | 0.00 | 0.00 | 34 | 1008.2 |
| 20260508164535 | 56 | 303 | 6.0 | 17.0 | 0.00 | 0.00 | 0.00 | 36 | 1008.4 |
| 20260508163019 | 56 | 281 | 8.0 | 16.0 | 0.00 | 0.00 | 0.00 | 35 | 1008.7 |
| 20260508161506 | 55 | 269 | 8.0 | 17.0 | 0.00 | 0.00 | 0.00 | 39 | 1008.6 |
| 20260508160010 | 55 | 249 | 3.0 | 13.0 | 0.00 | 0.00 | 0.00 | 41 | 1008.8 |
| 20260508154521 | 55 | 243 | 5.0 | 11.0 | 0.00 | 0.00 | 0.00 | 43 | 1009.0 |
| 20260508153035 | 53 | 302 | 8.0 | 11.0 | 0.00 | 0.00 | 0.00 | 43 | 1009.0 |
| 20260508151538 | 52 | 273 | 7.0 | 13.0 | 0.00 | 0.00 | 0.00 | 46 | 1009.4 |
| 20260508150009 | 52 | 326 | 6.0 | 12.0 | 0.00 | 0.00 | 0.00 | 48 | 1009.4 |
| 20260508144510 | 51 | 280 | 4.0 | 9.0 | 0.00 | 0.00 | 0.00 | 52 | 1009.5 |
| 20260508143010 | 50 | 257 | 4.0 | 12.0 | 0.00 | 0.00 | 0.00 | 53 | 1009.6 |
| 20260508141526 | 51 | 224 | 3.0 | 8.0 | 0.00 | 0.00 | 0.00 | 54 | 1009.7 |
| 20260508140022 | 49 | 271 | 5.0 | 8.0 | 0.00 | 0.00 | 0.00 | 56 | 1009.7 |
| 20260508134506 | 49 | 240 | 3.0 | 6.0 | 0.00 | 0.00 | 0.00 | 59 | 1009.7 |
| 20260508133011 | 47 | 245 | 1.0 | 6.0 | 0.00 | 0.00 | 0.00 | 65 | 1009.8 |
| 20260508131524 | 46 | 229 | 4.0 | 6.0 | 0.00 | 0.00 | 0.00 | 64 | 1009.9 |
| 20260508130026 | 45 | 230 | 0.0 | 2.0 | 0.00 | 0.00 | 0.00 | 71 | 1010.0 |
| 20260508124532 | 42 | 106 | 0.0 | 3.0 | 0.00 | 0.00 | 0.00 | 76 | 1010.0 |
| 20260508123011 | 38 | 242 | 0.0 | 1.0 | 0.00 | 0.00 | 0.00 | 84 | 1010.2 |
| 20260508121511 | 36 | 130 | 0.0 | 0.0 | 0.00 | 0.00 | 0.00 | 88 | 1010.2 |
| 20260508120026 | 34 | 130 | 0.0 | 0.0 | 0.00 | 0.00 | 0.00 | 89 | 1010.2 |
| 20260508114526 | 33 | 130 | 0.0 | 0.0 | 0.00 | 0.00 | 0.00 | 91 | 1010.2 |
| 20260508113034 | 32 | 130 | 0.0 | 0.0 | 0.00 | 0.00 | 0.00 | 91 | 1010.1 |